Location: El Bakhil
(32.7726°N, 5.5387°W)
Time: 20:16:23
(UTC+00:00)

N. Korean satellite - Pass Details

Date: 07 December 2021
Orbit: 447 x 490 km, 97.3° (Epoch: 27 January)

Event Time Altitude Azimuth Distance (km) Brightness Sun altitude
Rises 05:02:39 0° 23° (NNE) 2,450 10.3 -26.4°
Reaches altitude 10° 05:04:51 10° 34° (NE) 1,575 9.4 -26.0°
Maximum altitude 05:07:51 30° 98° (E) 826 8.3 -25.3°
Drops below altitude 10° 05:10:52 10° 161° (SSE) 1,572 9.5 -24.7°
Sets 05:13:03 0° 173° (S) 2,444 10.4 -24.3°
